DeKalb, IL

2:19 PM CST on February 17, 2018 (GMT -0600)
De Kalb Taylor Municipal

Weather History for KDKB - December, 2013

Change the Weather History Date:

Monday, December 16, 2013

  Actual Average (KARR) Record (KARR)
Temperature  
Mean Temperature 11 °F -  
Max Temperature 16 °F 32 °F 54 °F (2006)
Min Temperature 6 °F 17 °F 3 °F (2009)
Degree Days  
Heating Degree Days 54    
Moisture  
Dew Point 8 °F    
Average Humidity 80    
Maximum Humidity 93    
Minimum Humidity 64    
Precipitation  
Precipitation 0.00 in - - ()
Sea Level Pressure  
Sea Level Pressure 30.05 in    
Wind  
Wind Speed 6 mph (SW)    
Max Wind Speed 13 mph    
Max Gust Speed -    
Visibility 7 miles    
Events Snow    
Averages and records for this station are not official NWS values.
T = Trace of Precipitation, MM = Missing Value Source: NWS Daily Summary

Daily Weather History Graph

Daily Weather History Graph

Search for Another Location

Airport or City:

Trip Planner

Search our weather history database for the weather conditions in past years. The results will help you decide how hot, cold, wet, or windy it might be!

Date:

Astronomy

Dec. 16, 2013 Rise Set
Actual Time 7:16 AM CST 4:24 PM CST
Civil Twilight 6:44 AM CST 4:56 PM CST
Nautical Twilight 6:09 AM CST 5:31 PM CST
Astronomical Twilight 5:35 AM CST 6:05 PM CST
Moon 4:15 PM CST (12/16) 6:23 AM CST (12/16)
Length of Visible Light 10h 11m
Length of Day
9h 08m
Full, 100% of the Moon is Illuminated
Dec 16
Full
Dec 17
Full
Dec 25
Last Quarter
Jan 1
New
Jan 7
First Quarter

Hourly Weather History & Observations

Time (CST) Temp. Windchill Dew Point Humidity Pressure Visibility Wind Dir Wind Speed Gust Speed Precip Events Conditions
12:15 AM 10.2 °F -1.7 °F 0.3 °F 64% 30.09 in 5.0 mi NNW 8.1 mph - N/A Snow Light Snow
12:35 AM 9.5 °F -1.5 °F 1.0 °F 69% 30.09 in 5.0 mi NNW 6.9 mph - N/A Snow Light Snow
12:55 AM 9.5 °F -0.3 °F 1.8 °F 71% 30.09 in 5.0 mi North 5.8 mph - N/A   Haze
1:15 AM 9.3 °F -0.5 °F 2.5 °F 74% 30.09 in 5.0 mi North 5.8 mph - N/A Snow Light Snow
1:35 AM 9.0 °F -2.2 °F 2.3 °F 74% 30.09 in 5.0 mi North 6.9 mph - N/A Snow Light Snow
1:55 AM 9.1 °F -4.0 °F 1.4 °F 71% 30.09 in 7.0 mi North 9.2 mph - N/A Snow Light Snow
2:15 AM 8.6 °F -2.6 °F 2.5 °F 76% 30.10 in 7.0 mi NNE 6.9 mph - N/A Snow Light Snow
2:35 AM 8.2 °F -1.8 °F 1.6 °F 74% 30.10 in 10.0 mi NNE 5.8 mph - N/A   Scattered Clouds
2:55 AM 7.7 °F -3.7 °F 0.1 °F 71% 30.09 in 10.0 mi NE 6.9 mph - N/A   Mostly Cloudy
3:15 AM 6.3 °F -6.5 °F -1.5 °F 71% 30.09 in 10.0 mi NNE 8.1 mph - N/A   Mostly Cloudy
4:55 AM - - - N/A% - 10.0 mi NNE 3.5 mph - N/A   Unknown
5:15 AM - - - N/A% 30.09 in 10.0 mi NE 4.6 mph - N/A   Overcast
5:35 AM - - - N/A% 30.09 in 10.0 mi NNE 6.9 mph - N/A   Overcast
5:55 AM - - - N/A% - 10.0 mi North - - N/A   Overcast
6:15 AM - - - N/A% - 10.0 mi NE 4.6 mph - N/A   Unknown
6:35 AM - - - N/A% - 10.0 mi North - - N/A   Unknown
7:35 AM - - - N/A% 30.10 in 10.0 mi Calm Calm - N/A   Unknown
7:55 AM - - - N/A% 30.10 in 10.0 mi Calm Calm - N/A   Overcast
8:15 AM - - - N/A% - 10.0 mi North - - N/A   Unknown
8:35 AM 7.2 °F -1.5 °F -1.5 °F 68% 30.11 in 10.0 mi NE 4.6 mph - N/A   Unknown
8:55 AM 7.7 °F -0.9 °F -0.9 °F 68% 30.11 in 10.0 mi ENE 4.6 mph - N/A   Overcast
9:15 AM 8.6 °F 0.1 °F -0.4 °F 67% 30.11 in 10.0 mi East 4.6 mph - N/A   Overcast
9:35 AM 9.3 °F -0.5 °F -0.2 °F 65% 30.10 in 10.0 mi East 5.8 mph - N/A   Overcast
9:55 AM 10.0 °F 1.8 °F 0.5 °F 65% 30.11 in 10.0 mi East 4.6 mph - N/A   Overcast
10:15 AM 10.4 °F 4.0 °F 1.4 °F 67% 30.12 in 10.0 mi ESE 3.5 mph - N/A   Overcast
10:35 AM 11.3 °F - 1.4 °F 64% 30.13 in 10.0 mi Calm Calm - N/A   Overcast
10:55 AM 11.3 °F 5.1 °F 1.9 °F 66% 30.11 in 10.0 mi ENE 3.5 mph - N/A   Overcast
11:15 AM 11.7 °F 5.5 °F 2.1 °F 66% 30.10 in 10.0 mi ENE 3.5 mph - N/A   Overcast
11:35 AM 12.4 °F 4.6 °F 3.0 °F 66% 30.08 in 10.0 mi ESE 4.6 mph - N/A   Overcast
11:55 AM 12.7 °F 3.6 °F 4.3 °F 69% 30.06 in 10.0 mi SE 5.8 mph - N/A   Overcast
12:15 PM 13.5 °F 0.5 °F 5.7 °F 71% 30.04 in 10.0 mi SE 10.4 mph - N/A   Overcast
12:35 PM 14.0 °F 1.2 °F 7.3 °F 75% 30.02 in 10.0 mi SSE 10.4 mph - N/A   Overcast
12:55 PM 14.5 °F 4.6 °F 8.1 °F 75% 30.01 in 10.0 mi SSE 6.9 mph - N/A   Overcast
1:15 PM 15.3 °F 4.4 °F 8.8 °F 76% 30.01 in 10.0 mi SSE 8.1 mph - N/A   Overcast
1:35 PM 16.2 °F 4.7 °F 9.5 °F 75% 30.01 in 10.0 mi SSE 9.2 mph - N/A   Overcast
1:55 PM 16.5 °F 5.1 °F 10.2 °F 76% 30.00 in 10.0 mi SSE 9.2 mph - N/A   Overcast
2:15 PM 16.7 °F 4.5 °F 10.9 °F 78% 30.00 in 7.0 mi South 10.4 mph - N/A   Overcast
2:35 PM 16.7 °F 6.2 °F 11.8 °F 81% 30.01 in 4.0 mi South 8.1 mph - N/A Snow Light Snow
2:55 PM 16.3 °F 4.9 °F 12.7 °F 86% 30.01 in 1.8 mi South 9.2 mph - N/A Snow Light Snow
3:15 PM 16.2 °F 6.5 °F 13.3 °F 88% 30.01 in 1.2 mi South 6.9 mph - N/A Snow Light Snow
3:35 PM 16.3 °F 6.7 °F 13.1 °F 87% 30.00 in 1.2 mi South 6.9 mph - N/A Snow Light Snow
3:55 PM 16.5 °F 8.1 °F 13.8 °F 89% 30.01 in 1.8 mi SSE 5.8 mph - N/A Snow Light Snow
4:15 PM 16.3 °F 9.2 °F 13.6 °F 89% 30.01 in 3.0 mi SSW 4.6 mph - N/A Snow Light Snow
4:35 PM 16.3 °F 10.8 °F 13.6 °F 89% 30.01 in 7.0 mi SW 3.5 mph - N/A Snow Light Snow
4:55 PM 16.3 °F - 13.1 °F 87% 30.02 in 5.0 mi Calm Calm - N/A Snow Light Snow
5:15 PM 16.5 °F - 13.3 °F 87% 30.02 in 5.0 mi Calm Calm - N/A Snow Light Snow
5:35 PM 16.5 °F - 13.6 °F 88% 30.03 in 3.0 mi Calm Calm - N/A Snow Light Snow
5:55 PM 16.7 °F 9.6 °F 13.5 °F 87% 30.03 in 7.0 mi WSW 4.6 mph - N/A Snow Light Snow
6:15 PM 16.5 °F 11.0 °F 13.1 °F 86% 30.03 in 10.0 mi West 3.5 mph - N/A   Overcast
6:35 PM 16.5 °F 11.0 °F 13.1 °F 86% 30.02 in 10.0 mi WSW 3.5 mph - N/A   Overcast
6:55 PM 16.5 °F 9.4 °F 13.6 °F 88% 30.02 in 7.0 mi WSW 4.6 mph - N/A Snow Light Snow
7:15 PM 16.2 °F 10.6 °F 13.6 °F 90% 30.01 in 5.0 mi WSW 3.5 mph - N/A Snow Light Snow
7:35 PM 16.2 °F 6.5 °F 14.0 °F 91% 30.01 in 7.0 mi SW 6.9 mph - N/A   Overcast
7:55 PM 15.8 °F 5.1 °F 13.8 °F 92% 30.02 in 7.0 mi WSW 8.1 mph - N/A   Overcast
8:15 PM 15.8 °F 5.1 °F 13.6 °F 91% 30.02 in 7.0 mi WSW 8.1 mph - N/A   Overcast
8:35 PM 15.8 °F 6.1 °F 14.0 °F 93% 30.03 in 7.0 mi West 6.9 mph - N/A   Overcast
8:55 PM 15.6 °F 4.0 °F 13.8 °F 93% 30.04 in 5.0 mi West 9.2 mph - N/A   Overcast
9:15 PM 15.4 °F 4.6 °F 13.1 °F 90% 30.04 in 5.0 mi WNW 8.1 mph - N/A   Overcast
9:35 PM 14.9 °F 0.9 °F 12.7 °F 91% 30.04 in 5.0 mi WNW 12.7 mph - N/A   Overcast
9:55 PM 14.7 °F 2.1 °F 12.2 °F 90% 30.04 in 7.0 mi WNW 10.4 mph - N/A   Overcast
10:15 PM 14.5 °F 3.6 °F 12.0 °F 90% 30.04 in 7.0 mi WNW 8.1 mph - N/A   Overcast
10:35 PM 14.5 °F 5.7 °F 12.2 °F 90% 30.03 in 5.0 mi West 5.8 mph - N/A   Overcast
10:55 PM 14.2 °F 6.7 °F 12.2 °F 92% 30.03 in 5.0 mi West 4.6 mph - N/A   Overcast
11:15 PM 14.9 °F 4.0 °F 12.6 °F 90% 30.03 in 5.0 mi WSW 8.1 mph - N/A   Overcast
11:55 PM 15.3 °F 3.5 °F 13.6 °F 93% 30.03 in 3.0 mi West 9.2 mph - N/A   Overcast